• Join FlightAware (Why Join?)
  • Login
  • US Flag GB Flag 
05:53 EST


 

Airport Tracker/Info


-or-


 

Live Flight TrackerFlight Track Log ✈ ASQ4179 ✈ 06-Jul-2013 ✈ KEWR - KBOS

Flight Track Log - Related Links

Times and Time Zones

All times are in EDT time to prevent confusion due to time zone crossing. See the ASQ4179 flight status page for this flight to view local times or setup timezone preferences in your user account.

Time Position Orientation Groundspeed Altitude Reporting Facility
EDT Latitude Longitude Course Direction KTS MPH feet Rate Location/Type
06:57 40.6667 -74.1833 47° Northeast 178 205 1,300  Level New York TRACON
06:58 40.6167 -74.2167 207° Southwest 216 249 3,100 1,950 Climbing New York TRACON
06:59 40.6900 -74.2083 North 194 223 6,500 2,025 Climbing Boston Center
07:00 40.8620 -73.9046 37° Northeast  Level FlightAware Approximate
07:00 40.7083 -74.1075 76° East 192 221 8,500  Level Boston Center
07:01 40.9026 -73.8397 47° Northeast  Level FlightAware Approximate
07:01 40.7536 -74.0044 60° Northeast 250 288 10,400  Level Boston Center
07:02 40.9489 -73.7749 47° Northeast  Level FlightAware Approximate
07:03 40.8322 -73.8994 45° Northeast 298 343 11,700  Level Boston Center
07:04 40.9042 -73.8022 46° Northeast 336 387 12,700 1,050 Climbing Boston Center
07:05 40.9761 -73.6992 47° Northeast 368 423 13,800 1,150 Climbing Boston Center
07:06 41.0233 -73.5764 63° Northeast 397 457 15,000 1,150 Climbing Boston Center
07:07 41.0728 -73.4286 66° East 402 463 16,100 1,200 Climbing Boston Center
07:08 41.1217 -73.2889 65° Northeast 407 468 17,400 1,100 Climbing Boston Center
07:09 41.1644 -73.1653 65° Northeast 407 468 18,300 800 Climbing Boston Center
07:10 41.2108 -73.0250 66° East 407 468 19,000 350 Climbing Boston Center
07:11 41.2617 -72.8764 65° Northeast 419 482 19,000  Level Boston Center
07:12 41.3100 -72.7192 68° East 435 501 19,000  Level Boston Center
07:13 41.3667 -72.5508 66° East 450 518 19,000  Level Boston Center
07:14 41.4167 -72.3958 67° East 450 518 19,000  Level Boston Center
07:15 41.4667 -72.2433 66° East 450 518 19,000  Level Boston Center
07:16 41.5119 -72.1047 66° East 456 525 19,000  Level Boston Center
07:17 41.5636 -71.9378 67° East 450 518 19,000  Level Boston Center
07:18 41.6086 -71.7986 67° East 445 512 19,000 -600 Level Boston Center
07:19 41.6578 -71.6317 68° East 445 512 17,800 -1,800 Descending Boston Center
07:20 41.7106 -71.4753 66° East 455 524 15,400 -2,250 Descending Boston Center
07:21 41.7614 -71.3408 63° Northeast 420 483 13,300 -2,132 Descending Boston Center
07:22 41.8186 -71.2089 60° Northeast 406 467 11,100 -1,100 Descending Boston Center
07:23 41.8611 -71.1106 60° Northeast 391 450 11,100 -555 Level Boston Center
07:24 41.9139 -70.9839 61° Northeast 333 383 10,000 -1,050 Descending Boston Center
07:25 41.9583 -70.8850 59° Northeast 311 358 9,000 -850 Descending Boston Center
07:26 42.0028 -70.7889 58° Northeast 306 352 8,300 -500 Descending Boston Center
07:27 42.0536 -70.7039 51° Northeast 295 339 8,000 -250 Descending Boston Center
07:28 42.1128 -70.6267 44° Northeast 290 334 7,800 -450 Descending Boston Center
07:29 42.1772 -70.6133 North 263 303 7,100 -750 Descending Boston Center
07:30 42.2564 -70.6167 358° North 260 299 6,300 -950 Descending Boston Center
07:31 42.3256 -70.6400 346° North 258 297 5,200 -1,200 Descending Boston Center
07:32 42.3847 -70.6861 330° Northwest 245 282 3,900 -1,150 Descending Boston Center
07:33 42.4047 -70.7672 288° West 230 265 2,900 -870 Descending Boston Center
07:35 42.3667 -70.9167 251° West 129 148 1,000 -750 Descending KA90
07:36 42.3667 -70.9667 270° West 117 135 400 -600 Descending KA90
07:38 42.3500 -71.0000 North  Level FlightAware Approximate
07:45 42.3630 -71.0064 North  Level Estimated
07:46 42.3630 -71.0064 North  Level Estimated
07:47 42.3630 -71.0064 North  Level Estimated
07:48 42.3630 -71.0064 North  Level Estimated